Location: Azul
(36.7830°S, 59.8500°W)
Time: 00:37:02
(UTC-03:00)

CUBEBUG 2 - Pass Details

Date: 23 October 2021
Orbit: 584 x 697 km, 97.7° (Epoch: 30 November)

Event Time Altitude Azimuth Distance (km) Brightness Sun altitude
Exits shadow 04:45:51 16° 251° (WSW) 1,583 ? -15.5°
Drops below altitude 10° 04:47:35 10° 229° (SW) 1,971 ? -15.2°
Sets 04:50:24 0° 210° (SSW) 2,904 ? -14.6°
